KX4BE Weather Reports


Display with metric or nautical units.
time (UTC)temp
F
wind
direction
speed
MPH
gust
MPH
rain 1hr
in
rain 24hr
in
rain mn
in
humidity
%
barometer
mb
20260906152341 90 100 3.0 4.0 0.00 0.39 0.00 67 1016.0
20260906151837 89 105 1.0 3.0 0.00 0.39 0.00 67 1016.0
20260906151335 89 102 1.0 3.0 0.00 0.39 0.00 68 1016.0
20260906150852 88 197 2.0 3.0 0.00 0.39 0.00 68 1016.0
20260906150409 88 11 0.0 3.0 0.00 0.39 0.00 69 1016.0
20260906145846 87 5 1.0 3.0 0.00 0.39 0.00 70 1016.0
20260906145404 87 89 2.0 4.0 0.00 0.39 0.00 71 1016.1
20260906144840 86 85 2.0 4.0 0.00 0.39 0.00 72 1016.1
20260906144339 85 104 1.0 4.0 0.00 0.39 0.00 74 1016.1
20260906143835 85 329 3.0 4.0 0.00 0.39 0.00 74 1016.2
20260906143411 85 298 1.0 3.0 0.00 0.39 0.00 74 1016.1
20260906142830 84 113 0.0 4.0 0.00 0.39 0.00 78 1016.1
20260906142349 84 136 2.0 4.0 0.00 0.39 0.00 77 1016.2
20260906141845 83 184 2.0 4.0 0.00 0.39 0.00 78 1016.1
20260906141344 83 196 2.0 5.0 0.00 0.39 0.00 78 1016.1
20260906140900 82 200 1.0 3.0 0.00 0.39 0.00 80 1016.2
20260906140353 82 195 1.0 3.0 0.00 0.39 0.00 80 1016.1
20260906135910 81 213 327.0 327.0 0.00 0.00 0.00 81 1015.6
20260906135330 81 221 1.0 3.0 0.00 0.39 0.00 82 1016.1
20260906134847 81 223 1.0 4.0 0.00 0.39 0.00 82 1016.1
20260906134338 80 223 1.0 4.0 0.00 0.39 0.00 83 1016.1
20260906133854 80 192 1.0 5.0 0.00 0.39 0.00 84 1016.2
20260906133329 80 200 2.0 5.0 0.00 0.39 0.00 84 1016.1
20260906132847 79 206 0.0 3.0 0.00 0.39 0.00 86 1016.2
20260906132346 79 207 0.0 3.0 0.00 0.39 0.00 87 1016.4
20260906131843 79 207 1.0 3.0 0.00 0.39 0.00 86 1016.3
20260906131402 78 209 1.0 5.0 0.00 0.39 0.00 86 1016.3
20260906130839 78 205 2.0 5.0 0.00 0.39 0.00 87 1016.3
20260906130333 77 355 1.0 3.0 0.00 0.39 0.00 88 1016.2
20260906125848 77 360 1.0 2.0 0.00 0.39 0.00 89 1016.2
20260906125347 76 186 1.0 2.0 0.00 0.39 0.00 90 1016.2
20260906124844 76 207 0.0 3.0 0.00 0.39 0.00 91 1016.1
20260906124347 75 209 0.0 3.0 0.00 0.39 0.00 92 1016.2
20260906123845 75 221 0.0 5.0 0.00 0.39 0.00 92 1016.1
20260906123341 75 187 1.0 5.0 0.00 0.39 0.00 92 1016.0
20260906122835 74 231 1.0 4.0 0.00 0.39 0.00 93 1016.0
20260906122334 74 192 0.0 3.0 0.00 0.39 0.00 93 1016.0
20260906121831 74 216 0.0 1.0 0.00 0.39 0.00 93 1016.0
20260906121329 74 216 0.0 2.0 0.00 0.39 0.00 93 1015.9
20260906120848 74 216 0.0 1.0 0.00 0.39 0.00 92 1015.9
20260906120344 74 216 0.0 1.0 0.00 0.39 0.00 92 1015.9
20260906115841 74 216 0.0 2.0 0.00 0.39 0.00 92 1015.8
20260906115339 74 216 0.0 2.0 0.00 0.39 0.00 92 1015.8
20260906114856 74 216 1.0 2.0 0.00 0.39 0.00 92 1015.7
20260906114334 74 216 0.0 1.0 0.00 0.39 0.00 92 1015.6
20260906113851 74 216 0.0 1.0 0.00 0.39 0.00 91 1015.7
20260906113347 75 216 0.0 3.0 0.00 0.39 0.00 91 1015.5
20260906112843 74 216 1.0 3.0 0.00 0.39 0.00 91 1015.4
20260906112346 74 232 0.0 1.0 0.00 0.39 0.00 91 1015.4
20260906111841 74 232 0.0 3.0 0.00 0.39 0.00 91 1015.3
20260906111340 75 232 1.0 3.0 0.00 0.39 0.00 91 1015.4
20260906110836 75 211 0.0 2.0 0.00 0.39 0.00 91 1015.2
20260906110332 75 200 0.0 2.0 0.00 0.39 0.00 91 1015.1
20260906105831 75 200 0.0 3.0 0.00 0.39 0.00 91 1015.1
20260906105330 75 200 0.0 4.0 0.00 0.39 0.00 90 1015.0
20260906104845 75 210 1.0 4.0 0.00 0.39 0.00 90 1014.9
20260906104344 75 209 0.0 1.0 0.00 0.39 0.00 90 1014.8
20260906103842 75 209 0.0 2.0 0.00 0.39 0.00 90 1014.8
20260906103337 75 209 0.0 2.0 0.00 0.39 0.00 90 1014.8
20260906102835 75 209 0.0 0.0 0.00 0.39 0.00 90 1014.8
20260906102334 75 209 0.0 0.0 0.00 0.39 0.00 90 1014.7
20260906101851 75 209 0.0 0.0 0.00 0.39 0.00 89 1014.8
20260906101407 75 209 0.0 0.0 0.00 0.39 0.00 90 1014.8
20260906100903 75 209 0.0 3.0 0.00 0.39 0.00 89 1014.8
20260906100338 75 209 0.0 4.0 0.00 0.39 0.00 89 1014.9
20260906095839 75 211 1.0 4.0 0.00 0.39 0.00 89 1015.0
20260906095338 76 204 0.0 2.0 0.00 0.39 0.00 89 1014.9
20260906094836 76 204 0.0 2.0 0.00 0.39 0.00 89 1015.1
20260906094335 76 204 0.0 2.0 0.00 0.39 0.00 89 1015.3
20260906093913 76 204 0.0 2.0 0.00 0.39 0.00 89 1015.3
20260906093348 76 204 0.0 1.0 0.00 0.39 0.00 89 1015.4
20260906092905 76 204 0.0 1.0 0.00 0.39 0.00 88 1015.4
20260906092344 76 294 0.0 1.0 0.00 0.39 0.00 89 1015.5
20260906091842 76 294 0.0 1.0 0.00 0.39 0.00 89 1015.6
20260906091340 76 294 0.0 2.0 0.00 0.39 0.00 88 1015.7
20260906090837 76 294 0.0 2.0 0.00 0.39 0.00 87 1015.6
20260906090332 76 38 0.0 2.0 0.00 0.39 0.00 88 1015.8
20260906085849 76 38 0.0 2.0 0.00 0.39 0.00 87 1015.7
20260906085348 76 38 0.0 3.0 0.00 0.39 0.00 87 1015.7
20260906084846 76 42 1.0 6.0 0.00 0.39 0.00 87 1015.9
20260906084344 76 26 1.0 6.0 0.00 0.39 0.00 88 1015.9
20260906083844 76 5 1.0 4.0 0.00 0.39 0.00 87 1015.9
20260906083340 76 70 1.0 3.0 0.00 0.39 0.00 87 1015.9
20260906082915 76 78 1.0 4.0 0.00 0.39 0.00 87 1015.8
20260906082348 76 36 1.0 4.0 0.00 0.39 0.00 87 1015.8
20260906081906 76 212 0.0 0.0 0.00 0.39 0.00 87 1015.6
20260906081343 76 212 0.0 1.0 0.00 0.39 0.00 87 1015.6
20260906080902 76 212 0.0 5.0 0.00 0.39 0.00 87 1015.8
20260906080336 76 212 2.0 5.0 0.00 0.39 0.00 86 1015.4
20260906075830 76 211 1.0 3.0 0.00 0.39 0.00 86 1015.3
20260906075349 76 211 0.0 3.0 0.00 0.39 0.00 86 1015.3
20260906074846 76 211 0.0 3.0 0.00 0.39 0.00 86 1015.0
20260906074345 76 211 2.0 4.0 0.00 0.39 0.00 86 1014.9
20260906073842 76 207 2.0 4.0 0.00 0.39 0.00 87 1014.9
20260906073338 76 211 2.0 4.0 0.00 0.39 0.00 87 1014.8
20260906072834 76 271 1.0 6.0 0.00 0.39 0.00 87 1014.8
20260906072333 76 185 2.0 5.0 0.00 0.39 0.00 87 1014.9
20260906071830 75 193 2.0 3.0 0.00 0.39 0.00 88 1014.9
20260906071349 75 188 0.0 3.0 0.00 0.39 0.00 90 1014.9
20260906070848 75 188 1.0 3.0 0.00 0.39 0.00 91 1015.2
20260906070343 75 172 1.0 2.0 0.00 0.39 0.00 92 1015.5
20260906065844 75 196 1.0 3.0 0.00 0.39 0.00 92 1015.5
20260906065401 75 126 0.0 2.0 0.00 0.39 0.00 92 1016.0
20260906064838 75 126 1.0 2.0 0.00 0.39 0.00 92 1016.2
20260906064337 75 132 1.0 2.0 0.00 0.39 0.00 93 1016.0
20260906063833 75 131 0.0 2.0 0.00 0.39 0.00 94 1015.7
20260906063408 75 131 0.0 3.0 0.00 0.39 0.00 94 1015.8
20260906062846 75 131 1.0 3.0 0.00 0.39 0.00 94 1015.7
20260906062344 75 131 0.0 0.0 0.00 0.39 0.00 94 1015.6
20260906061859 75 131 0.0 0.0 0.00 0.39 0.00 94 1015.9
20260906061336 75 131 0.0 0.0 0.00 0.39 0.00 94 1015.9
20260906060834 75 131 0.0 0.0 0.00 0.39 0.00 94 1015.7
20260906060410 75 131 0.0 0.0 0.00 0.39 0.00 94 1015.5
20260906055846 75 131 0.0 0.0 0.00 0.39 0.00 94 1015.5
20260906055345 75 131 0.0 0.0 0.00 0.39 0.00 94 1015.4
20260906054840 75 131 0.0 0.0 0.00 0.39 0.00 94 1015.3
20260906054339 75 131 0.0 0.0 0.00 0.39 0.00 93 1015.3
20260906053837 75 131 0.0 0.0 0.00 0.39 0.00 93 1015.4
20260906053333 75 131 0.0 0.0 0.00 0.39 0.00 93 1015.4
20260906052830 75 131 0.0 0.0 0.00 0.39 0.00 93 1015.3
20260906052334 75 131 0.0 0.0 0.00 0.39 0.00 93 1015.3
20260906051907 75 131 0.0 0.0 0.00 0.39 0.00 93 1015.3
20260906051347 75 131 0.0 0.0 0.00 0.39 0.00 93 1015.4
20260906050844 75 131 0.0 0.0 0.00 0.39 0.00 93 1015.5
20260906050359 75 131 0.0 0.0 0.00 0.39 0.00 93 1015.5
20260906045833 75 131 0.0 0.0 0.00 0.39 0.00 93 1015.6
20260906045333 75 131 0.0 0.0 0.00 0.39 0.00 93 1015.6
20260906044831 76 131 0.0 0.0 0.00 0.39 0.00 92 1015.8
20260906044349 76 131 0.0 0.0 0.00 0.39 0.00 92 1015.8
20260906043844 76 131 0.0 0.0 0.00 0.39 0.00 92 1016.0
20260906043339 76 131 0.0 0.0 0.00 0.39 0.00 92 1015.9
20260906042838 76 131 0.0 0.0 0.00 0.39 0.00 92 1015.7
20260906042336 76 131 0.0 0.0 0.00 0.39 0.00 92 1015.8
20260906041854 76 131 0.0 0.0 0.00 0.39 0.00 92 1015.8
20260906041333 76 131 0.0 0.0 0.00 0.39 0.00 92 1015.7
20260906040848 76 131 0.0 0.0 0.00 0.39 0.00 92 1015.8
20260906040344 76 131 0.0 0.0 0.00 0.39 0.39 93 1015.9
20260906035843 77 131 0.0 0.0 0.00 0.39 0.39 93 1015.9
20260906035342 77 131 0.0 0.0 0.00 0.00 0.39 92 1015.5
20260906034841 77 131 0.0 0.0 0.00 0.39 0.39 92 1015.8
20260906034339 77 131 0.0 0.0 0.00 0.39 0.39 92 1015.9
20260906033858 77 131 0.0 0.0 0.00 0.39 0.39 91 1016.0
20260906033329 77 131 0.0 0.0 0.00 0.39 0.39 91 1016.1
20260906032846 77 131 0.0 0.0 0.00 0.39 0.39 92 1016.0
20260906032405 77 131 0.0 0.0 0.00 0.39 0.39 92 1016.0
20260906031842 77 131 0.0 0.0 0.00 0.39 0.39 92 1016.0
20260906031342 77 131 0.0 0.0 0.00 0.39 0.39 92 1015.8
20260906030840 77 131 0.0 0.0 0.00 0.39 0.39 91 1015.8
20260906030335 78 131 0.0 0.0 0.00 0.39 0.39 91 1016.0
20260906025831 78 131 0.0 0.0 0.00 0.39 0.39 91 1016.1
20260906025349 78 131 0.0 0.0 0.00 0.39 0.39 91 1016.0
20260906024847 78 131 0.0 0.0 0.00 0.39 0.39 90 1016.0
20260906024345 78 131 0.0 0.0 0.00 0.39 0.39 89 1015.9
20260906023844 78 131 0.0 0.0 0.00 0.39 0.39 88 1015.7
20260906023339 78 131 0.0 0.0 0.00 0.39 0.39 88 1015.6
20260906022834 78 131 0.0 0.0 0.00 0.39 0.39 88 1015.5
20260906022338 78 131 0.0 0.0 0.00 0.39 0.39 89 1015.4
20260906021835 78 131 0.0 0.0 0.00 0.39 0.39 88 1015.4
20260906021335 78 131 0.0 0.0 0.00 0.39 0.39 87 1015.4
20260906020852 78 131 0.0 0.0 0.00 0.39 0.39 89 1015.5
20260906020348 78 131 0.0 0.0 0.00 0.39 0.39 88 1015.4
20260906015845 79 131 0.0 0.0 0.00 0.39 0.39 87 1015.4
20260906015342 79 131 0.0 0.0 0.00 0.39 0.39 87 1015.4
20260906014838 79 131 0.0 0.0 0.00 0.39 0.39 86 1015.2
20260906014338 79 131 0.0 0.0 0.00 0.39 0.39 87 1015.1
20260906013836 79 131 0.0 0.0 0.00 0.39 0.39 86 1015.2
20260906013352 79 131 0.0 0.0 0.00 0.39 0.39 85 1015.2
20260906012848 79 131 0.0 0.0 0.00 0.39 0.39 85 1015.1
20260906012348 79 131 0.0 0.0 0.00 0.39 0.39 85 1015.0
20260906011844 79 131 0.0 1.0 0.00 0.39 0.39 86 1015.0
20260906011343 79 131 0.0 1.0 0.00 0.39 0.39 85 1015.0
20260906010840 80 131 0.0 0.0 0.00 0.39 0.39 86 1015.2
20260906010357 80 131 0.0 0.0 0.00 0.39 0.39 85 1015.0
20260906005838 80 131 0.0 0.0 0.00 0.39 0.39 85 1014.8
20260906005337 80 131 0.0 0.0 0.00 0.39 0.39 85 1014.8
20260906004852 80 131 0.0 0.0 0.00 0.39 0.39 84 1014.8
20260906004330 80 131 0.0 0.0 0.00 0.39 0.39 84 1014.8
20260906003849 80 131 0.0 1.0 0.00 0.39 0.39 84 1014.7
20260906003345 80 131 0.0 1.0 0.00 0.39 0.39 82 1014.7
20260906002842 81 131 0.0 1.0 0.00 0.39 0.39 81 1014.7
20260906002341 81 131 0.0 1.0 0.00 0.39 0.39 81 1014.7
20260906001838 81 131 0.0 0.0 0.00 0.39 0.39 80 1014.7
20260906001335 81 131 0.0 0.0 0.00 0.39 0.39 80 1014.7
20260906000852 82 131 0.0 0.0 0.00 0.39 0.39 80 1014.7
20260906000407 82 131 0.0 1.0 0.00 0.39 0.39 78 1014.7
20260905235843 82 131 0.0 1.0 0.00 0.39 0.39 79 1014.7
20260905235343 83 131 0.0 1.0 0.00 0.39 0.39 78 1014.8
20260905234841 83 131 0.0 0.0 0.00 0.39 0.39 77 1014.9
20260905234340 83 131 0.0 1.0 0.00 0.39 0.39 76 1014.8
20260905233837 83 131 0.0 3.0 0.00 0.39 0.39 76 1015.1
20260905233336 84 131 1.0 3.0 0.00 0.39 0.39 75 1014.8
20260905232832 84 131 1.0 2.0 0.00 0.39 0.39 75 1014.8
20260905232331 84 131 0.0 3.0 0.00 0.39 0.39 75 1015.0
20260905231830 84 131 1.0 3.0 0.00 0.39 0.39 75 1014.8
20260905231349 84 131 0.0 0.0 0.00 0.39 0.39 73 1014.6
20260905230845 85 131 0.0 0.0 0.00 0.39 0.39 73 1014.5
20260905230340 85 131 0.0 0.0 0.00 0.39 0.39 72 1014.2
20260905225837 85 131 0.0 0.0 0.00 0.39 0.39 72 1014.1
20260905225335 85 131 0.0 0.0 0.00 0.39 0.39 71 1014.3
20260905224346 86 131 0.0 4.0 0.00 0.39 0.39 69 1014.4
20260905223843 87 92 3.0 4.0 0.00 0.39 0.39 68 1014.4
20260905223335 87 91 2.0 3.0 0.00 0.39 0.39 68 1014.4
20260905222834 87 89 2.0 3.0 0.00 0.39 0.39 67 1014.5
20260905222336 87 90 1.0 4.0 0.00 0.39 0.39 67 1014.5
20260905221834 87 62 1.0 4.0 0.00 0.39 0.39 68 1014.5
20260905221353 87 91 0.0 3.0 0.00 0.39 0.39 66 1014.6
20260905220911 88 92 1.0 4.0 0.00 0.39 0.39 67 1014.7
20260905220346 88 49 2.0 3.0 0.00 0.39 0.39 66 1014.9
20260905215842 88 17 0.0 2.0 0.00 0.39 0.39 67 1014.9
20260905215338 88 17 1.0 5.0 0.00 0.39 0.39 65 1014.9
20260905214834 88 10 0.0 8.0 0.00 0.39 0.39 68 1015.0
20260905214353 88 344 2.0 8.0 0.00 0.39 0.39 69 1015.0
20260905213850 88 94 2.0 5.0 0.00 0.39 0.39 67 1015.2
20260905213406 87 10 1.0 5.0 0.00 0.39 0.39 65 1015.0
20260905212841 87 21 2.0 9.0 0.00 0.39 0.39 65 1015.2
20260905212340 88 30 3.0 11.0 0.00 0.39 0.39 63 1015.1
20260905211839 88 339 2.0 11.0 0.00 0.39 0.39 66 1015.3
20260905211337 88 15 4.0 10.0 0.00 0.39 0.39 65 1015.3
20260905210835 88 49 2.0 9.0 0.00 0.39 0.39 66 1015.0
20260905210329 88 17 2.0 9.0 0.00 0.39 0.39 67 1015.2
20260905205846 87 92 4.0 9.0 0.00 0.39 0.39 68 1015.2
20260905205342 86 73 2.0 9.0 0.00 0.39 0.39 69 1015.4
20260905204839 85 5 3.0 7.0 0.00 0.39 0.39 72 1015.3
20260905204338 85 333 2.0 6.0 0.00 0.39 0.39 72 1015.4
20260905203841 85 324 3.0 8.0 0.00 0.39 0.39 73 1015.2
20260905203337 85 290 1.0 8.0 0.00 0.39 0.39 73 1015.3
20260905202835 86 36 2.0 7.0 0.00 0.39 0.39 76 1015.5
20260905202334 86 28 2.0 9.0 0.00 0.39 0.39 71 1015.2
20260905201830 87 21 1.0 9.0 0.00 0.39 0.39 72 1015.4
20260905201350 88 28 3.0 8.0 0.00 0.39 0.39 73 1015.8
20260905200846 90 339 4.0 8.0 0.00 0.39 0.39 69 1015.8
20260905200342 92 5 0.0 1.0 0.00 0.39 0.39 71 1015.1
20260905195838 92 5 0.0 1.0 0.00 0.39 0.39 70 1015.0
20260905195339 92 5 0.0 1.0 0.00 0.39 0.39 70 1015.0
20260905194834 91 5 0.0 2.0 0.00 0.39 0.39 69 1015.1
20260905194333 91 5 0.0 2.0 0.00 0.39 0.39 72 1015.3
20260905193851 90 5 0.0 2.0 0.00 0.39 0.39 74 1015.4
20260905193346 89 188 0.0 1.0 0.00 0.39 0.39 74 1015.4
20260905192842 88 187 0.0 4.0 0.01 0.39 0.39 75 1015.4
20260905192342 87 187 1.0 4.0 0.01 0.39 0.39 79 1015.5
20260905191844 87 201 1.0 5.0 0.01 0.39 0.39 82 1015.4
20260905191338 87 201 1.0 5.0 0.01 0.39 0.39 85 1015.6
20260905190858 85 203 1.0 5.0 0.08 0.39 0.39 85 1015.8
20260905190352 84 201 2.0 4.0 0.18 0.39 0.39 87 1015.7
20260905185845 82 200 0.0 3.0 0.29 0.39 0.39 90 1015.8
20260905185344 81 200 0.0 3.0 0.37 0.39 0.39 93 1015.9
20260905184902 80 200 0.0 3.0 0.39 0.39 0.39 98 1015.9
20260905184339 79 200 1.0 3.0 0.39 0.39 0.39 99 1015.8
20260905183835 78 201 0.0 3.0 0.39 0.39 0.39 98 1015.9
20260905183331 76 200 0.0 2.0 0.39 0.39 0.39 96 1016.0
20260905182849 75 200 0.0 2.0 0.39 0.39 0.39 94 1016.0
20260905182348 75 201 2.0 3.0 0.38 0.38 0.38 90 1016.0
20260905181846 76 200 1.0 10.0 0.38 0.38 0.38 88 1016.3
20260905181345 76 316 6.0 10.0 0.38 0.38 0.38 81 1016.5
20260905180842 78 206 4.0 22.0 0.32 0.32 0.32 82 1016.4
20260905180337 82 153 14.0 23.0 0.22 0.22 0.23 74 1016.7
20260905175834 90 178 2.0 14.0 0.11 0.11 0.11 68 1017.6
20260905175338 94 23 5.0 14.0 0.03 0.03 0.03 64 1016.7
20260905174833 96 73 2.0 7.0 0.00 0.00 0.00 55 1016.2
20260905174352 96 146 4.0 10.0 0.00 0.00 0.00 55 1016.1
20260905173849 96 60 4.0 11.0 0.00 0.00 0.00 54 1016.2
20260905173403 97 144 4.0 11.0 0.00 0.00 0.00 54 1016.2
20260905172840 98 332 6.0 11.0 0.00 0.00 0.00 53 1016.2
20260905172339 98 128 4.0 10.0 0.00 0.00 0.00 53 1016.3
20260905171854 98 254 2.0 11.0 0.00 0.00 0.00 53 1016.3
20260905171332 98 65 3.0 7.0 0.00 0.00 0.00 54 1016.3
20260905170848 98 65 2.0 6.0 0.00 0.00 0.00 55 1016.3
20260905170403 97 161 3.0 8.0 0.00 0.00 0.00 55 1016.3
20260905165838 96 161 5.0 8.0 0.00 0.00 0.00 55 1016.4
20260905165337 96 340 2.0 12.0 0.00 0.00 0.00 55 1016.6
20260905164835 97 65 7.0 12.0 0.00 0.00 0.00 55 1016.7
20260905164334 97 27 5.0 8.0 0.00 0.00 0.00 54 1016.7
20260905163833 96 165 3.0 6.0 0.00 0.00 0.00 58 1016.7
20260905163349 96 139 1.0 3.0 0.00 0.00 0.00 59 1016.9
20260905162843 96 140 1.0 4.0 0.00 0.00 0.00 59 1016.9
20260905162342 95 143 1.0 6.0 0.00 0.00 0.00 59 1017.0
20260905161840 95 19 3.0 7.0 0.00 0.00 0.00 60 1017.0
20260905161342 95 48 5.0 7.0 0.00 0.00 0.00 59 1017.0
20260905160841 94 51 3.0 8.0 0.00 0.00 0.00 61 1017.0
20260905160337 94 236 2.0 10.0 0.00 0.00 0.00 61 1017.1
20260905155835 94 43 3.0 5.0 0.00 0.00 0.00 61 1017.1
20260905155333 94 69 3.0 5.0 0.00 0.00 0.00 62 1017.2
20260905154831 93 331 1.0 3.0 0.00 0.00 0.00 63 1017.1
20260905154410 93 116 1.0 6.0 0.00 0.00 0.00 63 1017.2
20260905153847 93 179 4.0 6.0 0.00 0.00 0.00 62 1017.2
20260905153343 93 140 1.0 3.0 0.00 0.00 0.00 63 1017.4
20260905152839 93 314 1.0 9.0 0.00 0.00 0.00 64 1017.3